User: anonymous   Login
Location: Mentone
(34.5413°N, 85.5351°W)
Time: 18:23:27
(UTC-06:00)
Language:

UOSAT-12 - Orbit

View from above orbital plane
View from above orbital plane
View from above satellite
View from above satellite

Ground track
Ground track

The orbit data is extracted from the following two-line orbital elements,

1 25693U 99021A   17022.50852138 -.00000053  00000-0  11922-4 0  9998
2 25693  64.5543 214.6554 0020642 326.1571  33.8215 14.80709960958592
Epoch (UTC): 22 January 2017 12:12:16
Eccentricity: 0.0020642
inclination: 64.5543°
perigee height: 612 km
apogee height: 641 km
right ascension of ascending node: 214.6554°
argument of perigee: 326.1571°
revolutions per day: 14.80709960
mean anomaly at epoch: 33.8215°
orbit number at epoch: 95859

The dashed part of the orbit path shows where the satellite is in the earth's shadow,  

DLR